Flag for Germany Weather past 2 weeks in Weyhe, Lower Saxony, Germany

Now
63 °F

Broken clouds.


Feels Like: 63 °F
Forecast: 51 / 69 °F
Wind: 6 mph from East

Location: Bremen Airport

Current Time: Sep 2, 2014 at 11:57:57 AM

Latest Report: Sep 2, 2014 at 11:20 AM


Visibility: N/A

Pressure: 30.18 "Hg

Humidity: 83%

Dew point: 57 °F

Location of WeyheLocation

Historic Weather in Weyhe — Graph

°F

Weyhe temperature yesterday

Maximum temperature yesterday: 66 °F (at 12:20 PM)
Minimum temperature yesterday: 50 °F (at 1:50 AM)
Average temperature yesterday: 59 °F

Past Weeks' High & Low Weather Summary

 TemperatureHumidityPressure
High75 °F (Aug 28, 2:50 PM)100% (Aug 21, 4:50 AM)30.15 "Hg (Aug 21, 4:50 AM)
Low43 °F (Aug 25, 4:50 AM)33% (Aug 27, 2:20 PM)29.53 "Hg (Aug 18, 10:20 AM)
Average57 °F80%29.90 "Hg
* Reported Aug 18 10:20 AM — Sep 2 10:50 AM, Weyhe, Weather by CustomWeather, © 2014

Note: Actual official high and low records may vary slightly from our data, if they occured in-between our weather recording intervals... More about our weather records

Advertising

Weyhe weather history for previous 24 hours

 ConditionsComfort  
Time TempWeatherWind HumidityBarometerVisibility
10:50 AM
Sep 2
64 °FBroken clouds.9 mph83%30.15 "Hg5 mi
10:20 AM63 °FPartly sunny.7 mph88%30.15 "Hg4 mi
9:50 AM63 °FPartly sunny.7 mph88%30.15 "Hg4 mi
9:20 AM63 °FPartly sunny.7 mph88%30.15 "Hg4 mi
8:50 AM63 °FPartly sunny.8 mph88%30.12 "Hg4 mi
8:20 AM61 °FFog.7 mph100%30.12 "Hg2 mi
7:50 AM61 °FFog.7 mph94%30.12 "Hg2 mi
7:20 AM61 °FDrizzle. Fog.8 mph94%30.12 "Hg2 mi
6:50 AM61 °FPartly cloudy.9 mph94%30.12 "Hg4 mi
6:20 AM61 °FPassing clouds.7 mph94%30.09 "Hg4 mi
5:50 AM61 °FPassing clouds.7 mph94%30.09 "Hg4 mi
5:20 AM59 °FPassing clouds.5 mph100%30.09 "HgN/A
4:50 AM59 °FPassing clouds.5 mph94%30.09 "HgN/A
4:20 AM59 °FPassing clouds.5 mph94%30.09 "HgN/A
3:50 AM59 °FPassing clouds.5 mph94%30.09 "HgN/A
3:20 AM59 °FPassing clouds.3 mph94%30.09 "HgN/A
2:50 AM59 °FPassing clouds.3 mph94%30.09 "HgN/A
2:20 AM57 °FPassing clouds.2 mph94%30.09 "HgN/A
1:50 AM59 °FPassing clouds.7 mph94%30.09 "HgN/A
1:20 AM61 °FPassing clouds.7 mph88%30.09 "HgN/A
12:50 AM61 °FPassing clouds.8 mph88%30.09 "HgN/A
12:20 AM61 °FPassing clouds.7 mph88%30.09 "HgN/A
11:50 PM
Sep 1
59 °FPassing clouds.7 mph94%30.09 "HgN/A
11:20 PM59 °FPassing clouds.5 mph94%30.09 "HgN/A
10:20 PM57 °FPassing clouds.6 mph94%30.09 "HgN/A
9:50 PM59 °FPassing clouds.6 mph94%30.09 "HgN/A
9:20 PM59 °FPassing clouds.6 mph94%30.09 "HgN/A
8:50 PM59 °FPartly sunny.6 mph88%30.09 "HgN/A
8:20 PM61 °FPartly sunny.8 mph88%30.09 "HgN/A
7:50 PM63 °FPartly sunny.8 mph88%30.07 "HgN/A
7:20 PM63 °FPartly sunny.9 mph88%30.07 "HgN/A
6:50 PM63 °FPartly sunny.10 mph83%30.07 "HgN/A
6:20 PM66 °FBroken clouds.12 mph64%30.07 "HgN/A
5:50 PM66 °FBroken clouds.9 mph68%30.07 "HgN/A
5:20 PM66 °FPartly sunny.10 mph68%30.07 "HgN/A
4:50 PM66 °FPartly sunny.9 mph68%30.07 "HgN/A
4:20 PM66 °FPartly sunny.12 mph68%30.07 "HgN/A
3:50 PM66 °FPartly sunny.9 mph68%30.07 "HgN/A
3:20 PM66 °FPartly sunny.10 mph68%30.07 "HgN/A
2:50 PM66 °FBroken clouds.9 mph68%30.07 "HgN/A
2:20 PM66 °FBroken clouds.8 mph68%30.07 "HgN/A
1:50 PM66 °FBroken clouds.8 mph68%30.07 "HgN/A
1:20 PM66 °FScattered clouds.5 mph68%30.07 "HgN/A
12:50 PM66 °FScattered clouds.10 mph64%30.07 "HgN/A
12:20 PM66 °FScattered clouds.9 mph68%30.07 "HgN/A
11:50 AM64 °FScattered clouds.7 mph78%30.07 "HgN/A
11:20 AM63 °FPartly sunny.7 mph77%30.07 "HgN/A
Weather by CustomWeather, © 2014

See weather overviewHow to use our weather pages